ORBVIEW 2 (SEASTAR)

Last updated on Wed Jul 02 2025 00:02:14 GMT+0000 (Coordinated Universal Time)

1 24883U 97037A 25182.39932020 .00000180 00000+0 78984-4 0 9995 2 24883 98.8279 335.5289 0003336 85.3346 274.8219 14.35262021472427
UTC large
Height (km)
Speed (km/s)
/
Latitude / Longitude
Inclination (degrees)
Orbital Period (minutes)
Azimuth
Elevation
Range (km)
Doppler Factor

Next 0 passes for location: London (51.5072 / 0.1276)

Sorry there are no passes over London.